GFSNE_925_thetae_162.txt.gz
Theta_e
353 354 352 348 349 350 345 344 344 358 355 350 349 353 352 352 351 350 350 350 349 342 338 334 331 324 315 313 311 311 308 305 304 304 304 305 308 309
353 353 352 354 352 350 349 348 351 353 357 346 352 354 352 351 351 353 352 352 350 347 341 336 332 329 320 316 314 313 310 307 305 304 305 306 307 309
349 350 350 349 348 345 348 347 348 347 350 347 351 355 353 353 352 352 351 350 348 345 344 339 334 330 321 314 312 312 309 306 305 306 308 307 307 311
344 353 348 353 352 351 351 353 352 353 348 352 349 348 351 354 353 356 355 352 351 348 344 340 338 332 324 314 309 309 307 306 306 306 306 304 304 306
351 351 351 351 350 351 349 352 352 352 349 352 350 350 348 352 351 355 354 351 349 345 341 339 338 335 327 316 308 307 307 307 306 305 304 303 303 307
350 350 351 352 348 349 350 350 352 351 353 353 354 352 349 350 352 353 349 348 350 343 336 332 330 325 316 308 306 307 307 305 304 304 303 301 301 301
350 352 353 351 349 351 351 351 352 352 352 352 353 353 352 350 348 348 350 348 350 343 331 330 325 321 311 306 308 307 307 306 305 303 303 301 300 300
351 351 352 352 352 350 350 350 350 350 353 353 352 354 354 352 349 348 348 347 348 344 336 324 323 320 319 316 311 307 307 307 307 305 302 302 300 299
350 350 350 351 351 352 352 353 353 351 351 350 351 351 352 351 350 349 349 350 350 346 333 325 324 321 317 317 314 308 307 308 308 307 304 301 302 300
349 350 350 351 350 351 351 350 349 351 351 348 348 348 349 349 349 349 348 348 348 346 343 327 317 315 314 313 311 308 308 308 308 308 307 303 301 301
349 349 349 351 352 351 351 351 347 347 349 349 348 346 345 345 345 343 343 343 346 336 335 327 315 313 313 313 310 310 308 308 308 309 307 307 304 302
347 349 350 350 350 350 349 349 348 347 348 343 341 337 335 336 335 333 333 335 334 328 324 323 314 314 311 311 309 308 308 308 308 309 308 308 307 307
347 348 349 349 345 345 345 344 346 344 343 339 334 332 330 327 326 326 327 327 329 325 324 325 316 314 314 312 311 310 309 310 310 308 308 308 308 308
343 344 343 341 342 341 340 338 337 338 337 333 328 325 323 323 323 323 324 325 326 327 325 323 319 317 314 312 312 311 310 312 312 312 310 310 308 308
339 338 337 337 336 333 334 333 332 333 329 326 323 321 321 320 319 320 319 318 320 321 320 320 320 317 315 316 315 314 313 313 314 314 313 311 309 307
330 330 330 330 329 328 328 329 327 326 325 323 320 319 317 317 318 317 315 314 315 317 318 319 320 318 317 317 316 315 314 315 314 313 312 312 310 310
327 326 326 325 325 325 324 325 324 324 323 321 319 319 318 317 316 315 315 314 317 319 321 318 319 319 319 319 318 318 316 315 317 315 314 314 314 315
329 328 327 326 324 325 323 323 323 322 321 320 319 318 317 315 315 316 315 317 318 318 321 320 318 321 321 320 320 321 317 316 317 318 315 316 317 314
330 329 329 327 326 325 324 324 322 321 320 319 319 317 317 317 316 315 317 319 319 318 316 318 318 320 320 319 317 315 317 317 319 318 316 316 315 314
329 328 328 328 327 326 326 324 322 320 320 319 318 318 316 315 315 316 317 317 318 317 315 314 314 313 315 315 314 315 313 309 313 316 315 315 315 313
329 329 328 327 327 325 323 320 319 319 318 317 316 316 316 316 317 317 316 315 315 316 315 315 315 314 311 308 313 313 313 312 308 309 312 312 311 310
329 329 329 328 326 324 322 321 320 318 317 319 319 316 316 315 315 314 314 314 312 313 316 316 314 313 314 313 313 313 314 311 311 309 305 305 306 308
321 321 321 321 321 320 320 319 319 317 317 317 316 315 315 314 313 313 312 312 312 314 313 314 316 313 313 312 311 311 312 313 312 312 309 308 305 305

GFSNE_925_thetae_165.txt.gz
Theta_e
349 353 355 353 354 350 346 346 345 347 347 349 348 347 349 349 350 348 347 348 348 346 341 338 333 327 318 315 313 312 310 308 306 305 306 306 307 310
352 351 351 350 351 349 346 350 349 350 348 352 353 351 352 350 350 349 349 350 349 348 345 340 336 332 327 320 315 315 314 311 309 308 306 306 307 310
350 348 348 347 347 348 350 348 353 352 348 348 349 353 350 350 351 350 350 350 349 347 343 340 336 334 331 323 318 316 314 311 308 308 307 306 308 314
349 343 350 347 350 351 348 352 354 352 350 344 349 350 349 351 353 352 350 349 349 348 343 341 336 332 328 322 317 315 313 310 309 307 306 305 308 313
349 350 351 349 351 350 350 347 349 351 350 350 349 350 352 352 351 351 349 350 348 347 345 342 338 334 329 323 317 314 311 309 308 306 304 304 305 305
350 350 351 350 352 350 349 348 349 349 350 349 351 351 351 348 349 348 347 349 346 342 340 337 336 330 323 314 307 308 308 308 307 305 303 302 301 301
349 349 351 351 350 350 349 349 349 350 351 350 352 351 351 349 349 348 348 348 346 347 345 339 332 326 317 308 308 307 307 306 305 303 302 301 300 300
350 348 349 351 351 352 351 350 350 351 351 351 353 352 350 351 350 349 348 346 345 342 341 334 329 322 317 311 309 307 307 306 305 303 303 301 300 299
349 350 349 349 349 350 352 352 350 350 350 350 350 350 350 350 350 348 349 348 347 345 337 323 319 318 317 313 311 307 307 307 307 308 303 301 300 299
349 350 349 349 349 349 350 351 351 350 349 349 349 347 347 347 348 346 346 346 345 339 331 320 317 316 315 315 310 308 308 308 309 308 307 302 302 301
348 348 348 349 349 348 349 349 349 349 347 347 347 346 344 343 343 343 343 343 344 337 334 324 314 313 312 312 313 314 310 308 309 308 309 306 303 301
349 347 348 348 349 349 349 349 349 348 346 340 338 337 337 338 338 336 334 336 336 328 326 322 315 316 312 312 312 310 310 308 308 308 309 307 307 306
347 347 347 346 345 345 345 344 345 345 344 340 337 334 332 330 329 328 327 330 331 329 326 324 317 315 315 311 310 310 309 309 309 309 310 308 308 307
342 342 342 342 342 342 341 340 340 339 339 335 330 327 325 324 324 324 325 326 326 326 323 322 319 317 315 313 312 312 311 310 311 309 309 308 308 308
338 338 338 336 336 334 334 335 334 335 332 328 324 322 322 321 321 322 320 320 322 322 322 321 321 319 316 315 315 313 312 312 313 313 313 312 312 310
330 329 329 329 329 328 328 327 327 327 327 325 322 320 320 319 319 318 316 316 317 319 319 320 320 318 317 317 316 315 314 314 314 314 314 314 312 310
327 327 327 326 325 325 325 325 325 324 323 322 321 319 318 318 318 316 315 315 318 320 318 320 319 319 319 318 318 318 316 315 315 315 314 313 312 313
327 326 326 325 324 323 323 323 322 322 321 320 319 319 318 316 315 315 315 316 318 318 320 318 319 320 320 320 319 320 320 318 315 317 315 314 315 315
330 328 328 327 326 325 324 324 322 321 320 320 319 317 316 317 316 316 317 318 319 320 318 319 318 319 319 314 316 319 320 318 318 318 318 317 316 315
329 329 328 327 326 326 326 324 322 321 320 319 318 318 317 314 315 316 316 317 317 318 315 315 314 313 314 312 312 311 313 312 315 317 317 317 313 315
328 328 328 327 326 325 324 323 322 321 320 319 318 314 314 315 316 316 317 316 315 316 315 314 314 314 313 310 311 312 314 312 311 313 312 312 310 311
329 328 328 326 325 324 321 320 319 317 317 317 317 317 317 316 315 315 314 314 313 313 315 316 315 313 312 313 313 313 311 312 311 309 306 305 305 308
328 328 326 327 325 323 321 320 320 317 317 317 318 318 316 316 313 312 312 312 313 314 313 316 314 314 313 312 312 311 311 311 312 311 309 308 308 306

GFSNE_925_thetae_168.txt.gz
Theta_e
349 349 352 351 351 351 346 346 343 344 344 348 346 347 343 348 349 348 347 345 343 344 339 336 335 331 324 319 316 315 314 311 309 308 307 307 307 315
350 352 350 350 350 350 348 348 349 347 344 350 351 350 348 349 349 349 348 346 345 344 341 338 336 333 329 324 318 316 316 315 313 313 309 307 306 313
349 351 349 348 347 347 349 350 352 350 346 347 349 350 350 349 349 349 348 347 346 344 342 339 335 333 331 325 319 317 315 315 314 316 310 307 306 309
348 348 348 348 348 350 349 349 351 350 349 346 346 349 350 350 351 350 350 348 347 346 345 340 338 334 333 330 321 316 314 314 314 312 310 309 306 310
348 348 348 349 350 349 350 350 347 349 350 349 349 349 348 349 350 350 350 348 348 347 346 342 341 335 332 329 325 318 311 310 310 309 307 305 304 303
349 349 348 349 349 347 349 350 348 348 349 350 349 349 349 349 349 349 348 349 348 344 342 340 336 332 332 323 316 309 308 308 309 306 304 302 302 302
347 349 350 352 352 350 349 349 348 348 349 350 350 350 350 350 348 348 348 347 344 342 339 336 331 329 325 316 310 307 307 307 307 306 302 301 301 301
348 348 348 348 348 348 349 350 350 350 350 350 351 350 351 350 350 349 348 346 342 342 339 335 330 326 322 313 310 308 306 306 306 304 303 301 300 301
348 348 347 348 347 347 348 350 351 350 350 349 349 349 349 349 349 349 348 347 345 343 338 329 326 322 317 313 310 307 306 306 307 307 303 301 299 299
348 349 349 347 349 348 348 349 349 350 350 349 348 348 347 346 346 346 345 344 342 340 332 325 318 316 315 313 311 307 307 308 308 307 304 301 300 300
348 348 349 349 349 347 347 347 348 348 348 347 347 346 344 343 343 342 342 343 342 335 330 324 315 315 314 314 310 308 309 307 308 309 308 305 302 301
348 348 348 348 347 348 348 347 348 347 345 341 338 338 339 338 338 336 335 335 337 330 327 324 315 316 313 312 311 311 312 310 309 309 309 308 306 303
346 346 345 346 346 346 346 345 345 346 344 339 337 335 332 332 330 329 329 331 332 326 324 323 316 316 315 312 312 312 311 311 310 309 309 309 307 307
343 342 342 342 342 342 341 340 340 342 339 334 331 326 325 324 324 325 326 327 328 327 324 323 320 319 316 313 312 313 312 310 309 309 310 310 308 308
337 338 338 337 336 336 336 336 336 336 334 328 325 323 323 323 322 322 322 322 323 322 321 321 322 319 316 315 314 313 312 312 311 311 309 309 309 308
329 328 329 329 330 329 329 329 330 329 328 325 323 321 320 319 319 317 317 317 319 319 319 320 319 318 317 316 315 315 314 314 313 313 314 314 313 312
327 326 326 326 326 326 326 326 325 325 325 323 321 320 320 319 316 315 316 317 318 318 319 319 319 318 318 318 317 317 315 314 315 314 314 314 313 312
327 325 324 324 323 323 323 322 323 322 322 321 320 319 319 318 316 315 315 317 317 318 318 318 318 319 319 319 319 319 320 319 316 316 316 314 314 314
328 327 326 324 324 325 324 323 322 321 321 320 320 319 316 316 316 316 318 318 318 319 318 318 318 319 316 312 315 318 319 319 317 318 317 317 317 317
329 328 327 326 326 325 325 324 322 320 320 320 318 318 316 315 315 315 316 316 317 318 317 318 317 314 313 311 310 309 312 316 316 315 318 317 316 313
329 329 327 326 326 325 325 323 322 321 320 319 317 314 314 314 315 316 316 316 316 316 315 314 313 313 313 311 310 312 312 312 310 313 314 313 310 311
328 327 327 326 325 323 320 320 318 318 317 317 316 316 316 316 316 314 315 315 312 312 315 314 315 314 312 312 311 311 311 311 311 310 308 307 307 308
329 329 328 326 324 322 320 319 318 316 317 317 317 317 317 316 314 312 312 312 313 313 312 314 314 313 313 313 313 312 311 311 311 310 310 308 307 306

GFSNE_925_thetae_171.txt.gz
Theta_e
348 351 350 350 350 350 349 346 343 343 341 347 348 349 343 341 347 350 347 346 344 341 339 336 334 331 324 320 318 317 317 317 315 314 314 310 308 310
349 351 350 351 351 350 349 346 346 345 342 348 349 350 345 347 349 348 348 347 345 343 343 339 335 333 329 325 323 320 319 318 317 317 316 311 308 309
349 348 350 350 349 348 350 349 349 348 345 345 349 348 349 348 349 349 349 348 347 345 344 341 338 335 330 326 322 320 317 317 316 314 312 309 308 308
348 348 347 347 348 348 348 349 349 349 348 346 345 346 348 349 349 349 349 349 348 347 345 342 338 335 332 329 327 319 314 312 312 311 310 310 308 311
347 347 347 347 344 347 347 348 349 348 349 348 347 347 347 348 349 349 349 349 348 346 345 344 340 336 333 328 320 315 312 310 310 310 308 306 304 306
347 347 347 348 348 349 348 348 349 348 348 349 349 348 348 348 349 348 348 349 348 346 344 342 337 331 326 324 319 315 311 309 309 307 305 303 302 303
348 345 347 348 348 348 348 350 349 349 349 348 348 348 348 349 349 348 347 347 345 344 341 338 334 332 327 323 317 314 310 308 307 304 303 303 301 301
346 348 347 347 347 348 347 347 346 348 348 347 348 348 349 349 349 349 348 345 342 342 339 336 332 329 327 322 315 312 308 307 306 303 304 301 300 301
348 347 346 347 347 347 347 347 346 347 347 348 348 347 348 347 348 347 347 346 344 342 337 333 330 327 324 320 314 311 307 306 306 307 306 302 299 300
347 347 347 347 346 347 347 347 348 348 348 349 349 348 347 347 345 344 345 344 341 340 337 329 325 321 318 315 312 309 307 306 309 309 306 302 299 299
348 349 348 348 347 347 348 348 347 347 347 347 347 347 345 344 342 342 341 342 341 335 331 328 318 317 315 314 312 310 308 307 310 310 308 303 302 302
347 347 347 347 347 348 347 348 348 347 345 342 340 338 338 338 339 338 338 338 337 330 327 325 317 317 313 313 312 311 309 311 309 309 309 308 304 303
344 344 345 347 347 347 347 346 346 346 344 338 336 335 333 332 331 331 330 332 333 329 325 324 318 316 316 312 311 311 311 311 311 310 309 309 308 307
342 342 342 342 344 343 343 344 343 342 340 334 331 328 326 326 325 326 327 328 329 328 325 324 321 319 317 313 313 312 311 311 311 310 310 310 309 308
340 338 336 337 340 339 337 337 338 339 337 330 325 323 323 323 323 324 323 324 324 322 321 321 322 320 317 316 314 313 312 313 312 311 311 311 311 309
333 332 330 330 332 330 332 332 332 332 331 327 325 323 322 320 318 317 317 318 318 319 318 319 318 317 316 316 315 314 314 314 313 313 311 311 312 312
328 327 327 327 326 327 326 327 328 328 327 325 322 321 319 318 316 316 316 316 318 319 319 318 318 318 318 317 317 315 314 314 314 314 313 313 313 313
326 326 325 325 323 323 323 323 323 323 322 322 320 320 319 317 315 316 317 317 317 317 317 317 318 318 318 319 318 319 319 318 316 315 315 314 315 314
326 324 324 324 324 324 323 322 321 321 321 321 320 319 317 315 315 315 317 317 317 317 317 317 317 317 312 309 315 318 318 318 317 316 316 316 316 316
327 326 325 325 325 324 324 322 322 321 320 320 318 316 316 316 316 316 316 316 316 316 316 317 317 316 313 310 310 309 310 315 317 315 314 317 316 314
328 328 327 326 325 324 324 323 322 321 320 319 318 316 315 315 315 315 315 315 316 317 315 315 314 312 312 311 310 311 311 312 312 313 313 314 314 310
327 327 326 325 324 324 323 322 321 320 318 316 314 314 314 314 315 314 314 315 314 314 315 314 314 314 313 311 311 311 311 310 311 310 311 310 308 307
327 326 326 325 324 321 319 319 317 317 317 316 316 316 316 315 315 313 313 312 313 312 311 312 313 313 313 312 312 311 311 310 310 310 310 308 307 305